Change the Weather History Date:

Thursday, February 13, 2014

  Actual Average Record
Temperature  
Mean Temperature 24 °F 27 °F  
Max Temperature 31 °F 34 °F 59 °F (1900)
Min Temperature 16 °F 19 °F -12 °F (1967)
Degree Days  
Heating Degree Days 41 38  
Month to date heating degree days 557 512  
Since 1 July heating degree days 4446 4285  
Cooling Degree Days 0 0  
Month to date cooling degree days 0 0  
Year to date cooling degree days 0 0  
Moisture  
Dew Point 22 °F    
Average Humidity 84    
Maximum Humidity 100    
Minimum Humidity 67    
Precipitation  
Precipitation 0.72 in 0.11 in 3.16 in (1900)
Month to date precipitation 2.14 1.47  
Year to date precipitation 5.24 4.96  
Snow  
Snow 10.50 in 0.60 in 10.50 in (2014)
Month to date snowfall 26.1 7.4  
Since 1 July snowfall 65.5 41.7  
Snow Depth 999.00 in    
Sea Level Pressure  
Sea Level Pressure 29.66 in    
Wind  
Wind Speed 14 mph (NE)    
Max Wind Speed 30 mph    
Max Gust Speed 42 mph    
Visibility 3 miles    
Events Fog , Rain , Snow    
T = Trace of Precipitation, MM = Missing Value Source: NWS Daily Summary

Daily Weather History Graph

Daily Weather History Graph

Search for Another Location

Airport or City:

Trip Planner

Search our weather history database for the weather conditions in past years. The results will help you decide how hot, cold, wet, or windy it might be!

Date:

Astronomy

Feb. 13, 2014 Rise Set
Actual Time 6:46 AM EST 5:17 PM EST
Civil Twilight 6:17 AM EST 5:46 PM EST
Nautical Twilight 5:44 AM EST 6:19 PM EST
Astronomical Twilight 5:12 AM EST 6:51 PM EST
Moon 4:23 PM EST (2/13) 5:38 AM EST (2/13)
Length of Visible Light 11h 28m
Length of Day
10h 30m
Waxing Gibbous, 98% of the Moon is Illuminated
Feb 13
Waxing Gibbous
Feb 14
Full
Feb 22
Last Quarter
Mar 1
New
Mar 8
First Quarter

Hourly Weather History & Observations

Time (EST) Temp. Windchill Dew Point Humidity Pressure Visibility Wind Dir Wind Speed Gust Speed Precip Events Conditions
12:54 AM 18.0 °F 11.1 °F 10.0 °F 71% 30.35 in 10.0 mi ENE 4.6 mph - N/A   Overcast
1:54 AM 17.1 °F 10.0 °F 10.9 °F 77% 30.33 in 10.0 mi NE 4.6 mph - N/A   Overcast
2:54 AM 16.0 °F 8.8 °F 9.0 °F 74% 30.33 in 10.0 mi NE 4.6 mph - N/A   Overcast
3:54 AM 17.1 °F 7.6 °F 9.0 °F 71% 30.30 in 10.0 mi NE 6.9 mph - N/A   Overcast
4:54 AM 17.1 °F 7.6 °F 10.0 °F 74% 30.28 in 9.0 mi NNE 6.9 mph - N/A   Overcast
5:44 AM 18.0 °F 9.8 °F 14.0 °F 84% 30.21 in 1.8 mi NE 5.8 mph - 0.00 in Snow Light Snow
5:54 AM 18.0 °F 9.8 °F 14.0 °F 84% 30.26 in 1.8 mi NE 5.8 mph - 0.01 in Snow Light Snow
6:37 AM 17.1 °F 7.6 °F 15.1 °F 92% 30.17 in 1.8 mi NE 6.9 mph - 0.01 in Snow Light Snow
6:54 AM 18.0 °F 7.7 °F 15.1 °F 88% 30.23 in 1.8 mi NE 8.1 mph - 0.02 in Snow Light Snow
7:54 AM 18.0 °F 8.7 °F 15.1 °F 88% 30.19 in 1.0 mi NE 6.9 mph - 0.01 in Snow Light Snow
8:05 AM 18.0 °F 7.7 °F 16.0 °F 92% 30.12 in 0.8 mi NNE 8.1 mph - 0.00 in Snow Light Snow
8:54 AM 19.9 °F 9.3 °F 18.0 °F 92% 30.15 in 0.8 mi NNE 9.2 mph - 0.03 in Snow Light Snow
9:54 AM 21.0 °F 9.3 °F 19.0 °F 92% 30.09 in 0.5 mi NNE 11.5 mph 18.4 mph 0.04 in Fog , Snow Snow
10:54 AM 21.9 °F 10.4 °F 19.9 °F 92% 30.02 in 0.5 mi NE 11.5 mph 20.7 mph 0.05 in Fog , Snow Snow
11:39 AM 21.9 °F 9.2 °F 19.9 °F 92% 29.91 in 0.2 mi NE 13.8 mph 23.0 mph 0.03 in Fog , Snow Snow
11:54 AM 21.9 °F 8.2 °F 19.9 °F 92% 29.94 in 0.2 mi NNE 16.1 mph 27.6 mph 0.05 in Fog , Snow Snow
12:30 PM 21.9 °F 8.7 °F 21.0 °F 96% 29.82 in 0.2 mi NE 15.0 mph 26.5 mph 0.04 in Fog , Snow Heavy Snow
12:54 PM 21.9 °F 7.3 °F 21.0 °F 96% 29.83 in 0.2 mi NNE 18.4 mph 31.1 mph 0.08 in Fog , Snow Heavy Snow
1:54 PM 23.0 °F 8.7 °F 21.9 °F 96% 29.75 in 0.2 mi NNE 18.4 mph 31.1 mph 0.12 in Fog , Snow Heavy Snow
2:37 PM 24.1 °F 9.8 °F 21.9 °F 91% 29.62 in 0.2 mi NE 19.6 mph 34.5 mph 0.09 in Fog Light Freezing Fog
2:54 PM 25.0 °F 10.9 °F 23.0 °F 92% 29.66 in 0.2 mi NE 19.6 mph 33.4 mph 0.11 in Fog Light Freezing Fog
3:09 PM 25.0 °F 10.6 °F 23.0 °F 92% 29.59 in 0.5 mi NE 20.7 mph 34.5 mph N/A Fog Light Freezing Fog
3:54 PM 26.1 °F 11.3 °F 25.0 °F 96% 29.57 in 0.8 mi NE 23.0 mph 40.3 mph N/A   Overcast
4:54 PM 28.0 °F 16.1 °F 26.1 °F 92% 29.50 in 0.8 mi NE 16.1 mph 42.6 mph N/A   Overcast
5:05 PM 28.0 °F 14.6 °F 27.0 °F 96% 29.44 in 1.0 mi NNE 20.7 mph 39.1 mph N/A   Overcast
5:54 PM 28.0 °F 14.3 °F 27.0 °F 96% 29.45 in 1.8 mi NE 21.9 mph 35.7 mph N/A   Overcast
6:27 PM 28.0 °F 14.3 °F 27.0 °F 96% 29.37 in 2.5 mi NNE 21.9 mph 36.8 mph N/A   Mist
6:39 PM 28.0 °F 14.3 °F 27.0 °F 96% 29.36 in 3.0 mi NE 21.9 mph 38.0 mph N/A   Mist
6:54 PM 28.0 °F 13.9 °F 27.0 °F 96% 29.39 in 4.0 mi NNE 23.0 mph 35.7 mph N/A   Overcast
7:54 PM 28.9 °F 15.8 °F 28.0 °F 96% 29.33 in 3.0 mi NE 20.7 mph 28.8 mph 0.00 in Snow Light Snow
8:24 PM 30.0 °F 17.2 °F 28.0 °F 92% 29.25 in 2.5 mi NNE 20.7 mph 32.2 mph 0.01 in Snow Light Snow
8:54 PM 30.0 °F 18.7 °F 28.9 °F 96% 29.26 in 3.0 mi NE 16.1 mph 33.4 mph 0.02 in   Overcast
9:02 PM 30.0 °F 17.2 °F 28.9 °F 96% 29.21 in 3.0 mi NE 20.7 mph 33.4 mph 0.00 in Rain Light Freezing Rain
9:20 PM 30.0 °F 18.7 °F 28.9 °F 96% 29.19 in 3.0 mi NE 16.1 mph 29.9 mph 0.00 in Snow Light Snow
9:54 PM 30.0 °F 17.5 °F 28.9 °F 96% 29.18 in 2.5 mi NNE 19.6 mph 29.9 mph 0.00 in Snow Light Snow
10:33 PM 30.0 °F 17.5 °F 28.9 °F 96% 29.07 in 3.0 mi NNE 19.6 mph 33.4 mph 0.01 in Snow Light Snow
10:54 PM 30.0 °F 17.2 °F 28.9 °F 96% 29.11 in 3.0 mi NE 20.7 mph 32.2 mph 0.03 in Snow Light Snow
11:03 PM 30.0 °F 18.7 °F 28.9 °F 96% 29.05 in 2.5 mi NE 16.1 mph 29.9 mph 0.03 in   Overcast
11:05 PM 30.0 °F 18.3 °F 30.0 °F 100% 29.04 in 3.0 mi NE 17.3 mph 27.6 mph 0.04 in Rain Light Freezing Rain
11:29 PM 30.0 °F 17.9 °F 28.9 °F 96% 28.99 in 9.0 mi NNE 18.4 mph 34.5 mph 0.12 in Rain Light Freezing Rain
11:51 PM 30.2 °F 17.4 °F 28.4 °F 93% 28.97 in 5.0 mi NE 20.7 mph 33.4 mph 0.14 in Rain Light Freezing Rain
11:54 PM 30.0 °F 20.0 °F 28.9 °F 96% 29.01 in 5.0 mi NE 12.7 mph 33.4 mph 0.14 in Rain Light Freezing Rain